Normed Antwerpen — V2DG9 — position and weather

sailwx.info

Track history (hours):
 
Tides and Currents Weather Stations Pressure Air Temp Water Temp Dewpoint Dewpoint Depression Visibility Wind Speed Wind Dir Waves Ship Positions

Normed Antwerpen

Last reported at 2014-Sep-21 07:33 UTC. Time now 2014-Sep-21 08:07 UTC.
Position N 51°15' E 004°22'.

Length 130 m; draft 6.2 m.

Type: Ship. MMSI: 305210993.

Date/timePositionNaut miles runAvg speedWind from/ knotsBaromVisibWave heightAir tempDewpointWater temp
2014-Sep-21 07:33N 51°15' E 004°22'0 0.4
2014-Sep-21 06:32N 51°15' E 004°22'0 0.0
2014-Sep-21 05:32N 51°15' E 004°22'0 0.0
2014-Sep-21 04:31N 51°15' E 004°22'0 0.0
2014-Sep-21 03:28N 51°15' E 004°22'0 0.0
2014-Sep-21 02:34N 51°15' E 004°22'0 0.0
2014-Sep-21 01:33N 51°15' E 004°22'0 0.0
2014-Sep-21 00:33N 51°15' E 004°22'0 0.0
2014-Sep-20 23:32N 51°15' E 004°22'0 0.0
2014-Sep-20 22:26N 51°15' E 004°22'0 0.0
2014-Sep-20 21:31N 51°15' E 004°22'0 0.0
2014-Sep-20 20:28N 51°15' E 004°22'0 0.0
2014-Sep-20 19:34N 51°15' E 004°22'0 0.0
2014-Sep-20 18:33N 51°15' E 004°22'0 0.0
2014-Sep-20 17:33N 51°15' E 004°22'0 0.0
2014-Sep-20 16:29N 51°15' E 004°22'0 0.0
2014-Sep-20 15:32N 51°15' E 004°22'0 0.0
2014-Sep-20 14:31N 51°15' E 004°22'0 0.0
2014-Sep-20 13:28N 51°15' E 004°22'0 0.0
2014-Sep-20 12:33N 51°15' E 004°22'0 0.0
2014-Sep-20 11:33N 51°15' E 004°22'0 0.0
2014-Sep-20 10:33N 51°15' E 004°22'0 0.0
2014-Sep-20 09:32N 51°15' E 004°22'0 0.0
2014-Sep-20 08:32N 51°15' E 004°22'0 0.0
2014-Sep-20 07:31N 51°15' E 004°22'0 0.0
2014-Sep-20 06:31N 51°15' E 004°22'0 0.0
2014-Sep-20 05:33N 51°15' E 004°22'0 0.0
2014-Sep-20 04:33N 51°15' E 004°22'0 0.0
2014-Sep-20 03:33N 51°15' E 004°22'0 0.0
2014-Sep-20 02:32N 51°15' E 004°22'0 0.0
2014-Sep-20 01:32N 51°15' E 004°22'0 0.0
2014-Sep-20 00:31N 51°15' E 004°22'0 0.0
2014-Sep-19 23:31N 51°15' E 004°22'0 0.0
2014-Sep-19 22:33N 51°15' E 004°22'1 1.4
2014-Sep-19 21:31N 51°15' E 004°24'0 0.0
2014-Sep-19 20:31N 51°15' E 004°24'0 0.0
2014-Sep-19 19:33N 51°15' E 004°24'0 0.0
2014-Sep-19 18:33N 51°15' E 004°24'0 0.0
2014-Sep-19 17:33N 51°15' E 004°24'0 0.0
2014-Sep-19 16:32N 51°15' E 004°24'0 0.0
2014-Sep-19 15:32N 51°15' E 004°24'0 0.0
2014-Sep-19 14:31N 51°15' E 004°24'0 0.0
2014-Sep-19 13:31N 51°15' E 004°24'0 0.0
2014-Sep-19 12:33N 51°15' E 004°24'0 0.0
2014-Sep-19 11:33N 51°15' E 004°24'0 0.0
2014-Sep-19 10:33N 51°15' E 004°24'0 0.0
2014-Sep-19 09:32N 51°15' E 004°24'0 0.0
2014-Sep-19 08:32N 51°15' E 004°24'0 0.0
2014-Sep-19 07:31N 51°15' E 004°24'0 0.0
2014-Sep-19 06:31N 51°15' E 004°24'0 0.0
2014-Sep-19 05:33N 51°15' E 004°24'0 0.0
2014-Sep-19 04:33N 51°15' E 004°24'0 0.0
2014-Sep-19 03:32N 51°15' E 004°24'0 0.0
2014-Sep-19 02:32N 51°15' E 004°24'0 0.0
2014-Sep-19 01:32N 51°15' E 004°24'0 0.0
2014-Sep-19 00:31N 51°15' E 004°24'0 0.0
2014-Sep-18 23:31N 51°15' E 004°24'0 0.0
2014-Sep-18 22:33N 51°15' E 004°24'0 0.0
2014-Sep-18 21:33N 51°15' E 004°24'0 0.0
2014-Sep-18 20:32N 51°15' E 004°24'0 0.0
2014-Sep-18 19:32N 51°15' E 004°24'0 0.4
2014-Sep-18 18:34N 51°15' E 004°24'3 2.8
2014-Sep-18 17:33N 51°17' E 004°20'0 0.3
2014-Sep-18 16:33N 51°17' E 004°20'4 3.8
2014-Sep-18 15:34N 51°20' E 004°16'6 6.5
2014-Sep-18 14:34N 51°22' E 004°07'7 6.5
2014-Sep-18 13:33N 51°23' E 003°56'9 8.8
2014-Sep-18 12:33N 51°25' E 003°42'8 8.4
2014-Sep-18 11:34N 51°29' E 003°30'1211.8
2014-Sep-18 10:33N 51°39' E 003°20'1010.2
2014-Sep-18 09:33N 51°48' E 003°15'1110.4
2014-Sep-18 08:32N 51°59' E 003°20'1111.4
2014-Sep-18 07:33N 52°09' E 003°27'1211.8
2014-Sep-18 06:33N 52°19' E 003°37'1212.2
2014-Sep-18 05:33N 52°28' E 003°51'1312.6
2014-Sep-18 04:33N 52°40' E 003°56'1312.7
2014-Sep-18 03:33N 52°53' E 003°59'1312.7
2014-Sep-18 02:33N 53°03' E 004°11'1313.3
2014-Sep-18 01:33N 53°13' E 004°26'1312.9
2014-Sep-18 00:33N 53°25' E 004°35'1312.5
2014-Sep-17 23:33N 53°32' E 004°53'1313.3
2014-Sep-17 22:33N 53°36' E 005°14'1414.1
2014-Sep-17 21:33N 53°41' E 005°36'1514.7
2014-Sep-17 20:33N 53°45' E 006°00'2114.9
2014-Sep-17 19:10N 53°51' E 006°34'1014.7
2014-Sep-17 18:30N 53°53' E 006°50'2714.1
2014-Sep-17 16:33N 53°59' E 007°35'1312.4
2014-Sep-17 15:33N 53°52' E 007°53'1312.8
2014-Sep-17 14:33N 53°46' E 008°12'1313.0
2014-Sep-17 13:33N 53°37' E 008°28'1110.6
2014-Sep-17 12:33N 53°27' E 008°29'1212.3
2014-Sep-17 11:33N 53°14' E 008°29'9 8.8
2014-Sep-17 10:34N 53°08' E 008°39'4 3.9
2014-Sep-17 09:33N 53°06' E 008°44'0 0.0
2014-Sep-17 08:33N 53°06' E 008°44'0 0.0
2014-Sep-17 07:32N 53°06' E 008°44'0 0.0
2014-Sep-17 06:32N 53°06' E 008°44'0 0.0
2014-Sep-17 05:31N 53°06' E 008°44'0 0.0
2014-Sep-17 04:31N 53°06' E 008°44'0 0.0
2014-Sep-17 03:33N 53°06' E 008°44'0 0.0
2014-Sep-17 02:33N 53°06' E 008°44'0 0.0
2014-Sep-17 01:33N 53°06' E 008°44'0 0.0
2014-Sep-17 00:32N 53°06' E 008°44'0 0.0
2014-Sep-16 23:32N 53°06' E 008°44'0 0.0
2014-Sep-16 22:31N 53°06' E 008°44'0 0.0
2014-Sep-16 21:31N 53°06' E 008°44'0 0.0
2014-Sep-16 20:33N 53°06' E 008°44'0 0.0
2014-Sep-16 19:33N 53°06' E 008°44'0 0.0
2014-Sep-16 18:33N 53°06' E 008°44'0 0.0
2014-Sep-16 17:32N 53°06' E 008°44'0 0.0
2014-Sep-16 16:32N 53°06' E 008°44'0 0.0
2014-Sep-16 15:31N 53°06' E 008°44'0 0.0
2014-Sep-16 14:31N 53°06' E 008°44'0 0.0
2014-Sep-16 13:33N 53°06' E 008°44'0 0.0
2014-Sep-16 12:33N 53°06' E 008°44'0 0.0
2014-Sep-16 11:33N 53°06' E 008°44'0 0.0
2014-Sep-16 10:33N 53°06' E 008°44'0 0.0
2014-Sep-16 09:32N 53°06' E 008°44'0 0.0
2014-Sep-16 08:31N 53°06' E 008°44'0 0.0
2014-Sep-16 07:31N 53°06' E 008°44'0 0.0
2014-Sep-16 06:33N 53°06' E 008°44'0 0.0
2014-Sep-16 05:34N 53°06' E 008°44'6 6.3
2014-Sep-16 04:34N 53°10' E 008°37'1111.0
2014-Sep-16 03:33N 53°20' E 008°30'1212.3
2014-Sep-16 02:33N 53°33' E 008°34'1413.6
2014-Sep-16 01:34N 53°43' E 008°18'1515.3
2014-Sep-16 00:33N 53°51' E 007°57'1111.2
2014-Sep-15 23:33N 53°54' E 007°38'1413.0
2014-Sep-15 22:29N 53°52' E 007°15'1613.6
2014-Sep-15 21:20N 53°48' E 006°49'1713.1
2014-Sep-15 20:04N 53°44' E 006°21'712.8
2014-Sep-15 19:33N 53°42' E 006°11'1312.8
2014-Sep-15 18:33N 53°38' E 005°50'1212.5
2014-Sep-15 17:33N 53°35' E 005°30'1212.3
2014-Sep-15 16:33N 53°31' E 005°11'1312.5
2014-Sep-15 15:33N 53°26' E 004°51'1212.0
2014-Sep-15 14:33N 53°17' E 004°37'1212.3
2014-Sep-15 13:33N 53°06' E 004°28'2913.0
2014-Sep-15 11:18N 52°41' E 004°04'1013.0
2014-Sep-15 10:33N 52°33' E 003°55'1312.7
2014-Sep-15 09:34N 52°20' E 003°52'1313.3
2014-Sep-15 08:34N 52°07' E 003°55'1111.0
2014-Sep-15 07:33N 51°59' E 004°07'1111.1
2014-Sep-15 06:33N 51°54' E 004°23'2 1.8
2014-Sep-15 05:31N 51°53' E 004°25'0 0.0
2014-Sep-15 04:33N 51°53' E 004°25'0 0.0
2014-Sep-15 03:30N 51°53' E 004°25'0 0.0
2014-Sep-15 02:32N 51°53' E 004°25'0 0.0
2014-Sep-15 01:32N 51°53' E 004°25'0 0.0
2014-Sep-15 00:19N 51°53' E 004°25'0 0.0
2014-Sep-14 23:31N 51°53' E 004°25'0 0.0
2014-Sep-14 22:31N 51°53' E 004°25'0 0.0
2014-Sep-14 21:33N 51°53' E 004°25'0 0.0
2014-Sep-14 20:30N 51°53' E 004°25'0 0.0
2014-Sep-14 19:32N 51°53' E 004°25'0 0.0
2014-Sep-14 18:32N 51°53' E 004°25'0 0.0
2014-Sep-14 17:32N 51°53' E 004°25'0 0.0
2014-Sep-14 16:28N 51°53' E 004°25'0 0.0
2014-Sep-14 15:31N 51°53' E 004°25'0 0.0
2014-Sep-14 14:33N 51°53' E 004°25'0 0.0
2014-Sep-14 13:30N 51°53' E 004°25'0 0.0
2014-Sep-14 12:29N 51°53' E 004°25'0 0.0
2014-Sep-14 11:23N 51°53' E 004°25'0 0.0
2014-Sep-14 10:31N 51°53' E 004°25'0 0.0
2014-Sep-14 09:31N 51°53' E 004°25'0 0.0
2014-Sep-14 08:31N 51°53' E 004°25'0 0.0
2014-Sep-14 07:33N 51°53' E 004°25'0 0.0
2014-Sep-14 06:33N 51°53' E 004°25'0 0.0
2014-Sep-14 05:20N 51°53' E 004°25'0 0.0
2014-Sep-14 04:32N 51°53' E 004°25'0 0.0
2014-Sep-14 03:31N 51°53' E 004°25'0 0.0
2014-Sep-14 02:31N 51°53' E 004°25'0 0.0
2014-Sep-14 01:31N 51°53' E 004°25'2 0.4
2014-Sep-13 21:34N 51°54' E 004°25'0 0.0
2014-Sep-13 20:31N 51°54' E 004°25'0 0.0
2014-Sep-13 19:31N 51°54' E 004°25'0 0.0
2014-Sep-13 18:27N 51°54' E 004°25'0 0.0
2014-Sep-13 17:33N 51°54' E 004°25'0 0.0
2014-Sep-13 16:32N 51°54' E 004°25'0 0.0
2014-Sep-13 15:26N 51°54' E 004°25'0 0.0
2014-Sep-13 14:32N 51°54' E 004°25'0 0.0
2014-Sep-13 13:31N 51°54' E 004°25'0 0.0
2014-Sep-13 12:28N 51°54' E 004°25'0 0.0
2014-Sep-13 11:33N 51°54' E 004°25'0 0.0
2014-Sep-13 10:33N 51°54' E 004°25'0 0.0
2014-Sep-13 09:32N 51°54' E 004°25'0 0.0
2014-Sep-13 08:29N 51°54' E 004°25'0 0.0
2014-Sep-13 07:31N 51°54' E 004°25'0 0.0
2014-Sep-13 06:31N 51°54' E 004°25'0 0.0
2014-Sep-13 05:31N 51°54' E 004°25'0 0.4
2014-Sep-13 04:33N 51°54' E 004°25'9 8.8
2014-Sep-13 03:34N 51°57' E 004°11'1313.0
2014-Sep-13 02:33N 52°01' E 003°51'9 8.9
2014-Sep-13 01:33N 52°09' E 003°45'6 6.5
2014-Sep-13 00:34N 52°14' E 003°39'7 6.6
2014-Sep-12 23:34N 52°18' E 003°47'1514.2
2014-Sep-12 22:32N 52°32' E 003°52'1514.9
2014-Sep-12 21:33N 52°47' E 003°56'1413.8
2014-Sep-12 20:33N 52°60' E 004°04'1313.2
2014-Sep-12 19:34N 53°09' E 004°20'2912.0
2014-Sep-12 17:08N 53°32' E 004°50'814.2
2014-Sep-12 16:33N 53°34' E 005°03'1515.0
2014-Sep-12 15:33N 53°39' E 005°27'1514.8
2014-Sep-12 14:33N 53°44' E 005°50'6412.9
2014-Sep-12 09:33N 54°01' E 007°36'1312.7
2014-Sep-12 08:33N 54°02' E 007°58'1313.4
2014-Sep-12 07:33N 53°60' E 008°20'1514.7
2014-Sep-12 06:34N 53°53' E 008°42'1414.0
2014-Sep-12 05:33N 53°53' E 009°06'3 2.6
2014-Sep-12 04:33N 53°54' E 009°10'6 6.3
2014-Sep-12 03:34N 53°59' E 009°17'8 8.0
2014-Sep-12 02:33N 54°07' E 009°20'8 7.3
2014-Sep-12 01:27N 54°11' E 009°31'5 5.4
2014-Sep-12 00:33N 54°15' E 009°37'53 7.4
2014-Sep-11 17:21N 54°36' E 011°01'1012.8
2014-Sep-11 16:33N 54°34' E 011°18'1313.3
2014-Sep-11 15:33N 54°28' E 011°39'1313.1
2014-Sep-11 14:33N 54°21' E 011°57'1010.3
2014-Sep-11 13:32N 54°11' E 012°05'2 1.9
2014-Sep-11 12:28N 54°09' E 012°06'0 0.0
2014-Sep-11 11:33N 54°09' E 012°06'0 0.0
2014-Sep-11 10:27N 54°09' E 012°06'0 0.0
2014-Sep-11 08:32N 54°09' E 012°06'  
Track history (hours):
 
Tides and Currents Weather Stations Pressure Air Temp Water Temp Dewpoint Dewpoint Depression Visibility Wind Speed Wind Dir Waves Ship Positions

Normed Antwerpen

Last reported at 2014-Sep-21 07:33 UTC. Time now 2014-Sep-21 08:07 UTC.
Position N 51°15' E 004°22'.

Length 130 m; draft 6.2 m.

Type: Ship. MMSI: 305210993.

Date/timePositionNaut miles runAvg speedWind from/ knotsBaromVisibWave heightAir tempDewpointWater temp
2014-Sep-21 07:33N 51°15' E 004°22'0 0.4
2014-Sep-21 06:32N 51°15' E 004°22'0 0.0
2014-Sep-21 05:32N 51°15' E 004°22'0 0.0
2014-Sep-21 04:31N 51°15' E 004°22'0 0.0
2014-Sep-21 03:28N 51°15' E 004°22'0 0.0
2014-Sep-21 02:34N 51°15' E 004°22'0 0.0
2014-Sep-21 01:33N 51°15' E 004°22'0 0.0
2014-Sep-21 00:33N 51°15' E 004°22'0 0.0
2014-Sep-20 23:32N 51°15' E 004°22'0 0.0
2014-Sep-20 22:26N 51°15' E 004°22'0 0.0
2014-Sep-20 21:31N 51°15' E 004°22'0 0.0
2014-Sep-20 20:28N 51°15' E 004°22'0 0.0
2014-Sep-20 19:34N 51°15' E 004°22'0 0.0
2014-Sep-20 18:33N 51°15' E 004°22'0 0.0
2014-Sep-20 17:33N 51°15' E 004°22'0 0.0
2014-Sep-20 16:29N 51°15' E 004°22'0 0.0
2014-Sep-20 15:32N 51°15' E 004°22'0 0.0
2014-Sep-20 14:31N 51°15' E 004°22'0 0.0
2014-Sep-20 13:28N 51°15' E 004°22'0 0.0
2014-Sep-20 12:33N 51°15' E 004°22'0 0.0
2014-Sep-20 11:33N 51°15' E 004°22'0 0.0
2014-Sep-20 10:33N 51°15' E 004°22'0 0.0
2014-Sep-20 09:32N 51°15' E 004°22'0 0.0
2014-Sep-20 08:32N 51°15' E 004°22'0 0.0
2014-Sep-20 07:31N 51°15' E 004°22'0 0.0
2014-Sep-20 06:31N 51°15' E 004°22'0 0.0
2014-Sep-20 05:33N 51°15' E 004°22'0 0.0
2014-Sep-20 04:33N 51°15' E 004°22'0 0.0
2014-Sep-20 03:33N 51°15' E 004°22'0 0.0
2014-Sep-20 02:32N 51°15' E 004°22'0 0.0
2014-Sep-20 01:32N 51°15' E 004°22'0 0.0
2014-Sep-20 00:31N 51°15' E 004°22'0 0.0
2014-Sep-19 23:31N 51°15' E 004°22'0 0.0
2014-Sep-19 22:33N 51°15' E 004°22'1 1.4
2014-Sep-19 21:31N 51°15' E 004°24'0 0.0
2014-Sep-19 20:31N 51°15' E 004°24'0 0.0
2014-Sep-19 19:33N 51°15' E 004°24'0 0.0
2014-Sep-19 18:33N 51°15' E 004°24'0 0.0
2014-Sep-19 17:33N 51°15' E 004°24'0 0.0
2014-Sep-19 16:32N 51°15' E 004°24'0 0.0
2014-Sep-19 15:32N 51°15' E 004°24'0 0.0
2014-Sep-19 14:31N 51°15' E 004°24'0 0.0
2014-Sep-19 13:31N 51°15' E 004°24'0 0.0
2014-Sep-19 12:33N 51°15' E 004°24'0 0.0
2014-Sep-19 11:33N 51°15' E 004°24'0 0.0
2014-Sep-19 10:33N 51°15' E 004°24'0 0.0
2014-Sep-19 09:32N 51°15' E 004°24'0 0.0
2014-Sep-19 08:32N 51°15' E 004°24'0 0.0
2014-Sep-19 07:31N 51°15' E 004°24'0 0.0
2014-Sep-19 06:31N 51°15' E 004°24'0 0.0
2014-Sep-19 05:33N 51°15' E 004°24'0 0.0
2014-Sep-19 04:33N 51°15' E 004°24'0 0.0
2014-Sep-19 03:32N 51°15' E 004°24'0 0.0
2014-Sep-19 02:32N 51°15' E 004°24'0 0.0
2014-Sep-19 01:32N 51°15' E 004°24'0 0.0
2014-Sep-19 00:31N 51°15' E 004°24'0 0.0
2014-Sep-18 23:31N 51°15' E 004°24'0 0.0
2014-Sep-18 22:33N 51°15' E 004°24'0 0.0
2014-Sep-18 21:33N 51°15' E 004°24'0 0.0
2014-Sep-18 20:32N 51°15' E 004°24'0 0.0
2014-Sep-18 19:32N 51°15' E 004°24'0 0.4
2014-Sep-18 18:34N 51°15' E 004°24'3 2.8
2014-Sep-18 17:33N 51°17' E 004°20'0 0.3
2014-Sep-18 16:33N 51°17' E 004°20'4 3.8
2014-Sep-18 15:34N 51°20' E 004°16'6 6.5
2014-Sep-18 14:34N 51°22' E 004°07'7 6.5
2014-Sep-18 13:33N 51°23' E 003°56'9 8.8
2014-Sep-18 12:33N 51°25' E 003°42'8 8.4
2014-Sep-18 11:34N 51°29' E 003°30'1211.8
2014-Sep-18 10:33N 51°39' E 003°20'1010.2
2014-Sep-18 09:33N 51°48' E 003°15'1110.4
2014-Sep-18 08:32N 51°59' E 003°20'1111.4
2014-Sep-18 07:33N 52°09' E 003°27'1211.8
2014-Sep-18 06:33N 52°19' E 003°37'1212.2
2014-Sep-18 05:33N 52°28' E 003°51'1312.6
2014-Sep-18 04:33N 52°40' E 003°56'1312.7
2014-Sep-18 03:33N 52°53' E 003°59'1312.7
2014-Sep-18 02:33N 53°03' E 004°11'1313.3
2014-Sep-18 01:33N 53°13' E 004°26'1312.9
2014-Sep-18 00:33N 53°25' E 004°35'1312.5
2014-Sep-17 23:33N 53°32' E 004°53'1313.3
2014-Sep-17 22:33N 53°36' E 005°14'1414.1
2014-Sep-17 21:33N 53°41' E 005°36'1514.7
2014-Sep-17 20:33N 53°45' E 006°00'2114.9
2014-Sep-17 19:10N 53°51' E 006°34'1014.7
2014-Sep-17 18:30N 53°53' E 006°50'2714.1
2014-Sep-17 16:33N 53°59' E 007°35'1312.4
2014-Sep-17 15:33N 53°52' E 007°53'1312.8
2014-Sep-17 14:33N 53°46' E 008°12'1313.0
2014-Sep-17 13:33N 53°37' E 008°28'1110.6
2014-Sep-17 12:33N 53°27' E 008°29'1212.3
2014-Sep-17 11:33N 53°14' E 008°29'9 8.8
2014-Sep-17 10:34N 53°08' E 008°39'4 3.9
2014-Sep-17 09:33N 53°06' E 008°44'0 0.0
2014-Sep-17 08:33N 53°06' E 008°44'0 0.0
2014-Sep-17 07:32N 53°06' E 008°44'0 0.0
2014-Sep-17 06:32N 53°06' E 008°44'0 0.0
2014-Sep-17 05:31N 53°06' E 008°44'0 0.0
2014-Sep-17 04:31N 53°06' E 008°44'0 0.0
2014-Sep-17 03:33N 53°06' E 008°44'0 0.0
2014-Sep-17 02:33N 53°06' E 008°44'0 0.0
2014-Sep-17 01:33N 53°06' E 008°44'0 0.0
2014-Sep-17 00:32N 53°06' E 008°44'0 0.0
2014-Sep-16 23:32N 53°06' E 008°44'0 0.0
2014-Sep-16 22:31N 53°06' E 008°44'0 0.0
2014-Sep-16 21:31N 53°06' E 008°44'0 0.0
2014-Sep-16 20:33N 53°06' E 008°44'0 0.0
2014-Sep-16 19:33N 53°06' E 008°44'0 0.0
2014-Sep-16 18:33N 53°06' E 008°44'0 0.0
2014-Sep-16 17:32N 53°06' E 008°44'0 0.0
2014-Sep-16 16:32N 53°06' E 008°44'0 0.0
2014-Sep-16 15:31N 53°06' E 008°44'0 0.0
2014-Sep-16 14:31N 53°06' E 008°44'0 0.0
2014-Sep-16 13:33N 53°06' E 008°44'0 0.0
2014-Sep-16 12:33N 53°06' E 008°44'0 0.0
2014-Sep-16 11:33N 53°06' E 008°44'0 0.0
2014-Sep-16 10:33N 53°06' E 008°44'0 0.0
2014-Sep-16 09:32N 53°06' E 008°44'0 0.0
2014-Sep-16 08:31N 53°06' E 008°44'0 0.0
2014-Sep-16 07:31N 53°06' E 008°44'0 0.0
2014-Sep-16 06:33N 53°06' E 008°44'0 0.0
2014-Sep-16 05:34N 53°06' E 008°44'6 6.3
2014-Sep-16 04:34N 53°10' E 008°37'1111.0
2014-Sep-16 03:33N 53°20' E 008°30'1212.3
2014-Sep-16 02:33N 53°33' E 008°34'1413.6
2014-Sep-16 01:34N 53°43' E 008°18'1515.3
2014-Sep-16 00:33N 53°51' E 007°57'1111.2
2014-Sep-15 23:33N 53°54' E 007°38'1413.0
2014-Sep-15 22:29N 53°52' E 007°15'1613.6
2014-Sep-15 21:20N 53°48' E 006°49'1713.1
2014-Sep-15 20:04N 53°44' E 006°21'712.8
2014-Sep-15 19:33N 53°42' E 006°11'1312.8
2014-Sep-15 18:33N 53°38' E 005°50'1212.5
2014-Sep-15 17:33N 53°35' E 005°30'1212.3
2014-Sep-15 16:33N 53°31' E 005°11'1312.5
2014-Sep-15 15:33N 53°26' E 004°51'1212.0
2014-Sep-15 14:33N 53°17' E 004°37'1212.3
2014-Sep-15 13:33N 53°06' E 004°28'2913.0
2014-Sep-15 11:18N 52°41' E 004°04'1013.0
2014-Sep-15 10:33N 52°33' E 003°55'1312.7
2014-Sep-15 09:34N 52°20' E 003°52'1313.3
2014-Sep-15 08:34N 52°07' E 003°55'1111.0
2014-Sep-15 07:33N 51°59' E 004°07'1111.1
2014-Sep-15 06:33N 51°54' E 004°23'2 1.8
2014-Sep-15 05:31N 51°53' E 004°25'0 0.0
2014-Sep-15 04:33N 51°53' E 004°25'0 0.0
2014-Sep-15 03:30N 51°53' E 004°25'0 0.0
2014-Sep-15 02:32N 51°53' E 004°25'0 0.0
2014-Sep-15 01:32N 51°53' E 004°25'0 0.0
2014-Sep-15 00:19N 51°53' E 004°25'0 0.0
2014-Sep-14 23:31N 51°53' E 004°25'0 0.0
2014-Sep-14 22:31N 51°53' E 004°25'0 0.0
2014-Sep-14 21:33N 51°53' E 004°25'0 0.0
2014-Sep-14 20:30N 51°53' E 004°25'0 0.0
2014-Sep-14 19:32N 51°53' E 004°25'0 0.0
2014-Sep-14 18:32N 51°53' E 004°25'0 0.0
2014-Sep-14 17:32N 51°53' E 004°25'0 0.0
2014-Sep-14 16:28N 51°53' E 004°25'0 0.0
2014-Sep-14 15:31N 51°53' E 004°25'0 0.0
2014-Sep-14 14:33N 51°53' E 004°25'0 0.0
2014-Sep-14 13:30N 51°53' E 004°25'0 0.0
2014-Sep-14 12:29N 51°53' E 004°25'0 0.0
2014-Sep-14 11:23N 51°53' E 004°25'0 0.0
2014-Sep-14 10:31N 51°53' E 004°25'0 0.0
2014-Sep-14 09:31N 51°53' E 004°25'0 0.0
2014-Sep-14 08:31N 51°53' E 004°25'0 0.0
2014-Sep-14 07:33N 51°53' E 004°25'0 0.0
2014-Sep-14 06:33N 51°53' E 004°25'0 0.0
2014-Sep-14 05:20N 51°53' E 004°25'0 0.0
2014-Sep-14 04:32N 51°53' E 004°25'0 0.0
2014-Sep-14 03:31N 51°53' E 004°25'0 0.0
2014-Sep-14 02:31N 51°53' E 004°25'0 0.0
2014-Sep-14 01:31N 51°53' E 004°25'2 0.4
2014-Sep-13 21:34N 51°54' E 004°25'0 0.0
2014-Sep-13 20:31N 51°54' E 004°25'0 0.0
2014-Sep-13 19:31N 51°54' E 004°25'0 0.0
2014-Sep-13 18:27N 51°54' E 004°25'0 0.0
2014-Sep-13 17:33N 51°54' E 004°25'0 0.0
2014-Sep-13 16:32N 51°54' E 004°25'0 0.0
2014-Sep-13 15:26N 51°54' E 004°25'0 0.0
2014-Sep-13 14:32N 51°54' E 004°25'0 0.0
2014-Sep-13 13:31N 51°54' E 004°25'0 0.0
2014-Sep-13 12:28N 51°54' E 004°25'0 0.0
2014-Sep-13 11:33N 51°54' E 004°25'0 0.0
2014-Sep-13 10:33N 51°54' E 004°25'0 0.0
2014-Sep-13 09:32N 51°54' E 004°25'0 0.0
2014-Sep-13 08:29N 51°54' E 004°25'0 0.0
2014-Sep-13 07:31N 51°54' E 004°25'0 0.0
2014-Sep-13 06:31N 51°54' E 004°25'0 0.0
2014-Sep-13 05:31N 51°54' E 004°25'0 0.4
2014-Sep-13 04:33N 51°54' E 004°25'9 8.8
2014-Sep-13 03:34N 51°57' E 004°11'1313.0
2014-Sep-13 02:33N 52°01' E 003°51'9 8.9
2014-Sep-13 01:33N 52°09' E 003°45'6 6.5
2014-Sep-13 00:34N 52°14' E 003°39'7 6.6
2014-Sep-12 23:34N 52°18' E 003°47'1514.2
2014-Sep-12 22:32N 52°32' E 003°52'1514.9
2014-Sep-12 21:33N 52°47' E 003°56'1413.8
2014-Sep-12 20:33N 52°60' E 004°04'1313.2
2014-Sep-12 19:34N 53°09' E 004°20'2912.0
2014-Sep-12 17:08N 53°32' E 004°50'814.2
2014-Sep-12 16:33N 53°34' E 005°03'1515.0
2014-Sep-12 15:33N 53°39' E 005°27'1514.8
2014-Sep-12 14:33N 53°44' E 005°50'6412.9
2014-Sep-12 09:33N 54°01' E 007°36'1312.7
2014-Sep-12 08:33N 54°02' E 007°58'1313.4
2014-Sep-12 07:33N 53°60' E 008°20'1514.7
2014-Sep-12 06:34N 53°53' E 008°42'1414.0
2014-Sep-12 05:33N 53°53' E 009°06'3 2.6
2014-Sep-12 04:33N 53°54' E 009°10'6 6.3
2014-Sep-12 03:34N 53°59' E 009°17'8 8.0
2014-Sep-12 02:33N 54°07' E 009°20'8 7.3
2014-Sep-12 01:27N 54°11' E 009°31'5 5.4
2014-Sep-12 00:33N 54°15' E 009°37'53 7.4
2014-Sep-11 17:21N 54°36' E 011°01'1012.8
2014-Sep-11 16:33N 54°34' E 011°18'1313.3
2014-Sep-11 15:33N 54°28' E 011°39'1313.1
2014-Sep-11 14:33N 54°21' E 011°57'1010.3
2014-Sep-11 13:32N 54°11' E 012°05'2 1.9
2014-Sep-11 12:28N 54°09' E 012°06'0 0.0
2014-Sep-11 11:33N 54°09' E 012°06'0 0.0
2014-Sep-11 10:27N 54°09' E 012°06'0 0.0
2014-Sep-11 08:32N 54°09' E 012°06'  

Dump ship's entire track history